Total_Precipitation_Accumulation
1.47 1.48 1.44 1.46 1.56 1.54 1.46 1.47 1.53 1.53 1.51 1.59 1.72 1.84 1.91 1.95 1.96 1.97 1.93 1.89 1.89 1.86 1.80 1.75 1.71 1.69 1.72 1.68 1.70 1.77 1.86 1.92 1.85 1.36 1.12 1.11 1.22 1.26 1.28 1.21 1.14 1.15 1.15
1.34 1.42 1.35 1.32 1.45 1.50 1.41 1.35 1.38 1.41 1.31 1.32 1.40 1.48 1.56 1.61 1.65 1.70 1.72 1.71 1.71 1.72 1.69 1.69 1.64 1.62 1.62 1.62 1.67 1.70 1.74 1.78 1.81 1.58 1.27 1.17 1.17 1.17 1.18 1.18 1.14 1.09 1.03
1.24 1.29 1.25 1.21 1.27 1.33 1.36 1.34 1.31 1.36 1.32 1.23 1.20 1.25 1.30 1.34 1.39 1.42 1.44 1.48 1.49 1.50 1.55 1.58 1.57 1.62 1.66 1.62 1.59 1.58 1.54 1.55 1.61 1.61 1.38 1.17 1.11 1.09 1.14 1.14 1.09 1.04 0.97
1.13 1.13 1.10 1.10 1.10 1.11 1.15 1.19 1.17 1.17 1.22 1.25 1.15 1.09 1.11 1.17 1.23 1.29 1.32 1.35 1.37 1.41 1.45 1.48 1.50 1.53 1.54 1.55 1.59 1.57 1.53 1.52 1.51 1.55 1.47 1.32 1.24 1.19 1.21 1.24 1.22 1.12 1.05
1.08 1.11 1.09 1.05 1.01 0.99 1.01 0.99 1.00 1.03 1.08 1.15 1.15 1.08 1.04 1.07 1.13 1.19 1.23 1.27 1.29 1.33 1.36 1.38 1.43 1.55 1.60 1.58 1.56 1.55 1.60 1.70 1.70 1.71 1.60 1.41 1.26 1.22 1.20 1.12 1.18 1.17 1.15
0.95 1.03 1.05 1.03 1.00 0.97 0.94 0.93 0.90 0.93 1.00 1.08 1.13 1.14 1.13 1.14 1.36 1.36 1.27 1.27 1.29 1.30 1.29 1.26 1.28 1.36 1.38 1.45 1.49 1.49 1.59 1.75 1.87 1.87 1.68 1.40 1.14 1.03 1.01 1.08 1.21 1.31 1.26
0.77 0.85 0.91 0.93 0.95 0.94 0.93 0.96 1.01 1.03 1.05 1.13 1.20 1.23 1.23 1.30 1.44 1.37 1.35 1.23 1.22 1.23 1.21 1.18 1.15 1.14 1.19 1.10 1.20 1.28 1.33 1.48 1.58 1.53 1.45 1.20 1.05 1.00 1.14 1.27 1.25 1.25 1.10
0.80 0.83 0.83 0.87 0.92 0.96 1.03 1.10 1.19 1.24 1.25 1.31 1.37 1.39 1.39 1.40 1.42 1.35 1.37 1.18 1.09 1.05 1.00 0.95 0.94 0.92 0.94 1.02 1.08 1.16 1.09 1.07 1.10 1.08 1.08 1.03 1.01 1.06 1.26 1.46 1.47 1.44 1.22
0.83 0.89 0.90 0.97 1.05 1.10 1.20 1.27 1.30 1.38 1.36 1.32 1.32 1.32 1.30 1.27 1.27 1.23 1.22 1.07 1.00 0.93 0.85 0.80 0.81 0.78 0.94 1.11 1.13 1.17 1.01 0.91 0.98 1.09 1.17 1.20 1.31 1.35 1.39 1.63 1.79 1.87 1.64
0.93 1.03 1.04 1.06 1.13 1.16 1.19 1.18 1.15 1.15 1.13 1.08 1.04 1.01 0.99 0.96 1.00 1.01 1.04 0.99 0.94 0.84 0.77 0.74 0.83 0.82 0.98 1.12 1.07 1.11 1.06 0.89 0.89 0.97 1.03 1.08 1.08 1.16 1.33 1.34 1.53 1.86 1.72
1.04 1.10 1.08 1.04 1.06 1.04 0.99 0.94 0.88 0.83 0.79 0.76 0.75 0.73 0.70 0.70 0.74 0.80 0.89 0.93 0.99 0.94 0.83 0.75 0.74 0.90 1.01 1.10 1.08 1.00 1.05 1.07 1.06 1.08 1.05 1.03 1.04 1.09 1.13 1.11 1.21 1.63 1.90
0.95 0.93 0.87 0.78 0.75 0.72 0.70 0.72 0.70 0.68 0.69 0.68 0.65 0.63 0.59 0.57 0.61 0.67 0.76 0.89 0.97 0.99 0.91 0.78 0.77 0.96 1.00 1.01 1.00 1.04 1.14 1.15 1.07 1.15 1.19 1.14 1.07 1.02 1.00 1.01 1.06 1.17 1.34
0.66 0.67 0.65 0.61 0.59 0.59 0.60 0.63 0.66 0.65 0.67 0.66 0.64 0.65 0.64 0.58 0.60 0.69 0.74 0.85 0.93 0.92 0.88 0.91 0.95 0.99 0.96 0.90 0.94 1.03 1.05 1.00 1.03 1.12 1.12 1.05 1.00 0.99 1.01 1.08 1.14 1.18 1.22
0.55 0.58 0.60 0.61 0.57 0.57 0.59 0.60 0.65 0.69 0.70 0.69 0.68 0.68 0.66 0.62 0.62 0.68 0.78 0.85 0.92 0.94 0.93 0.91 0.89 0.88 0.91 0.90 0.89 0.90 0.91 0.97 1.09 1.12 1.08 1.04 1.05 1.12 1.18 1.20 1.27 1.28 1.38
0.57 0.60 0.64 0.66 0.63 0.61 0.62 0.64 0.69 0.73 0.82 0.91 0.88 0.83 0.83 0.80 0.74 0.89 1.00 1.00 1.02 1.06 1.09 1.00 0.88 0.84 0.87 0.86 0.84 0.84 0.89 0.99 1.10 1.09 1.14 1.18 1.18 1.20 1.20 1.21 1.33 1.38 1.43
0.59 0.60 0.63 0.67 0.68 0.67 0.63 0.62 0.68 0.72 0.76 0.80 0.83 0.86 0.83 0.85 0.88 0.94 0.97 1.00 1.07 1.15 1.20 1.05 0.89 0.83 0.85 0.84 0.85 0.87 0.90 0.96 1.04 1.15 1.23 1.27 1.31 1.30 1.27 1.21 1.29 1.42 1.41
0.65 0.65 0.66 0.67 0.70 0.71 0.68 0.66 0.68 0.71 0.75 0.74 0.75 0.78 0.81 0.86 0.90 0.90 0.94 1.00 1.06 1.15 1.13 0.95 0.82 0.78 0.79 0.83 0.88 0.92 0.93 0.92 1.03 1.21 1.32 1.37 1.42 1.40 1.37 1.34 1.31 1.34 1.32
0.62 0.65 0.68 0.67 0.72 0.76 0.77 0.74 0.71 0.70 0.70 0.68 0.69 0.77 0.81 0.85 0.88 0.90 0.95 1.01 1.02 0.99 0.93 0.88 0.85 0.84 0.87 0.92 0.95 0.98 1.01 1.03 1.10 1.17 1.27 1.38 1.50 1.57 1.50 1.40 1.35 1.36 1.38
0.61 0.65 0.68 0.69 0.72 0.78 0.82 0.84 0.80 0.75 0.73 0.69 0.66 0.72 0.82 0.88 0.91 0.93 0.93 0.92 0.88 0.85 0.82 0.83 0.87 0.92 0.97 1.00 1.03 1.06 1.11 1.15 1.15 1.22 1.26 1.33 1.48 1.63 1.56 1.40 1.40 1.41 1.48
0.60 0.72 0.77 0.77 0.77 0.79 0.80 0.82 0.83 0.80 0.77 0.72 0.71 0.76 0.86 0.94 0.90 0.86 0.87 0.85 0.83 0.79 0.79 0.86 0.91 1.00 1.08 1.14 1.16 1.17 1.18 1.15 1.18 1.26 1.28 1.31 1.38 1.55 1.59 1.49 1.49 1.51 1.45
0.58 0.65 0.73 0.72 0.73 0.77 0.81 0.83 0.86 0.86 0.82 0.75 0.74 0.83 1.03 1.08 0.96 0.85 0.86 0.90 0.93 0.91 0.90 0.94 0.96 1.02 1.11 1.18 1.21 1.21 1.20 1.14 1.15 1.28 1.35 1.37 1.42 1.48 1.44 1.51 1.52 1.53 1.55
0.55 0.59 0.64 0.68 0.71 0.77 0.85 0.85 0.85 0.85 0.82 0.78 0.74 0.79 0.91 0.90 0.84 0.82 0.84 0.89 0.92 0.96 0.99 1.08 1.06 1.01 1.12 1.28 1.37 1.40 1.27 1.12 1.10 1.25 1.36 1.37 1.42 1.47 1.51 1.58 1.57 1.57 1.56
0.53 0.56 0.59 0.62 0.68 0.75 0.78 0.75 0.77 0.80 0.81 0.79 0.77 0.78 0.79 0.80 0.78 0.77 0.80 0.84 0.88 0.91 0.94 1.03 1.08 1.01 0.99 1.15 1.33 1.59 1.63 1.37 1.25 1.42 1.70 1.70 1.59 1.58 1.63 1.62 1.51 1.50 1.43
0.52 0.56 0.59 0.61 0.65 0.70 0.72 0.72 0.72 0.74 0.75 0.76 0.76 0.78 0.79 0.80 0.79 0.78 0.81 0.83 0.86 0.88 0.90 0.97 1.02 1.01 1.00 1.11 1.21 1.31 1.45 1.59 1.88 2.09 2.18 2.21 1.91 1.64 1.59 1.55 1.44 1.40 1.40
0.52 0.55 0.60 0.64 0.68 0.69 0.70 0.69 0.68 0.69 0.70 0.71 0.73 0.74 0.75 0.76 0.76 0.76 0.78 0.80 0.82 0.83 0.83 0.87 0.95 0.99 0.98 1.02 1.09 1.15 1.26 1.54 1.94 2.24 2.26 2.14 1.86 1.62 1.58 1.54 1.45 1.42 1.40
0.55 0.57 0.61 0.65 0.68 0.69 0.70 0.68 0.65 0.66 0.68 0.68 0.68 0.70 0.71 0.73 0.72 0.72 0.74 0.76 0.79 0.78 0.76 0.78 0.83 0.91 0.94 0.95 0.93 1.03 1.23 1.38 1.47 1.60 1.96 2.12 1.91 1.63 1.57 1.62 1.49 1.44 1.41